Weather History for Covington, KY

Change the Weather History Date:

Wednesday, January 2, 2013

  Actual Average Record
Temperature  
Mean Temperature 23 °F 31 °F  
Max Temperature 31 °F 39 °F 64 °F (2006)
Min Temperature 15 °F 24 °F -3 °F (1928)
Degree Days  
Heating Degree Days 42 34  
Month to date heating degree days 77 68  
Since 1 July heating degree days 1943 1987  
Cooling Degree Days 0 0  
Month to date cooling degree days 0 0  
Year to date cooling degree days 0 0  
Moisture  
Dew Point 15 °F    
Average Humidity 70    
Maximum Humidity 92    
Minimum Humidity 47    
Precipitation  
Precipitation 0.00 in 0.10 in 1.20 in (1966)
Month to date precipitation 0.01 0.21  
Year to date precipitation 0.01 0.21  
Snow  
Snow 0.00 in 0.20 in 3.90 in (1999)
Month to date snowfall 0.2 0.4  
Since 1 July snowfall 7.8 6.0  
Snow Depth 1.00 in    
Sea Level Pressure  
Sea Level Pressure 30.21 in    
Wind  
Wind Speed 4 mph (NW)    
Max Wind Speed 8 mph    
Max Gust Speed 16 mph    
Visibility 8 miles    
Events Fog    
T = Trace of Precipitation, MM = Missing Value Source: NWS Daily Summary

Daily Weather History Graph

Daily Weather History Graph

Search for Another Location

Airport:

Trip Planner

Search our weather history database for the weather conditions in past years. The results will help you decide how hot, cold, wet, or windy it might be!

Date:

Astronomy

Jan. 02, 2013 Rise Set
Actual Time 7:57 AM EST 5:28 PM EST
Civil Twilight 7:28 AM EST 5:57 PM EST
Nautical Twilight 6:54 AM EST 6:31 PM EST
Astronomical Twilight 6:22 AM EST 7:03 PM EST
Moon 10:56 PM EST (1/2) 10:41 AM EST (1/2)
Length of Visible Light 10h 29m
Length of Day
9h 30m
Waning Gibbous, 75% of the Moon is Illuminated
Jan 2
Waning Gibbous
Jan 4
Last Quarter
Jan 11
New
Jan 18
First Quarter
Jan 26
Full

Hourly Weather History & Observations

Time (EST) Temp. Windchill Dew Point Humidity Pressure Visibility Wind Dir Wind Speed Gust Speed Precip Events Conditions
12:52 AM 25.0 °F 18.1 °F 18.0 °F 75% 30.17 in 7.0 mi NNW 5.8 mph - N/A   Overcast
1:52 AM 24.1 °F 17.0 °F 18.0 °F 77% 30.16 in 7.0 mi NNW 5.8 mph - N/A   Overcast
2:52 AM 23.0 °F 15.8 °F 18.0 °F 81% 30.17 in 7.0 mi NW 5.8 mph - N/A   Overcast
3:52 AM 23.0 °F 15.8 °F 19.0 °F 85% 30.19 in 6.0 mi WNW 5.8 mph - N/A   Overcast
4:52 AM 21.0 °F 16.2 °F 18.0 °F 88% 30.18 in 5.0 mi WNW 3.5 mph - N/A   Mostly Cloudy
5:52 AM 19.9 °F 11.1 °F 18.0 °F 92% 30.19 in 4.0 mi NW 6.9 mph - N/A   Mostly Cloudy
6:52 AM 18.0 °F 12.7 °F 15.1 °F 88% 30.19 in 5.0 mi WNW 3.5 mph - N/A   Partly Cloudy
7:52 AM 16.0 °F 10.4 °F 14.0 °F 92% 30.22 in 4.0 mi WSW 3.5 mph - N/A Fog Scattered Clouds
8:52 AM 18.0 °F 11.1 °F 16.0 °F 92% 30.23 in 4.0 mi West 4.6 mph - N/A Fog Mostly Cloudy
9:52 AM 21.2 °F 16.4 °F 17.6 °F 86% 30.21 in 6.0 mi NW 3.5 mph - N/A   Mostly Cloudy
10:52 AM 24.1 °F - 18.0 °F 77% 30.27 in 7.0 mi Calm Calm - N/A   Mostly Cloudy
11:52 AM 26.1 °F 20.5 °F 18.0 °F 71% 30.25 in 9.0 mi NW 4.6 mph - N/A   Mostly Cloudy
12:52 PM 28.0 °F 22.8 °F 18.0 °F 66% 30.22 in 10.0 mi WNW 4.6 mph - N/A   Mostly Cloudy
1:52 PM 28.9 °F - 17.1 °F 61% 30.21 in 10.0 mi Calm Calm - N/A   Mostly Cloudy
2:52 PM 30.9 °F - 16.0 °F 54% 30.21 in 10.0 mi Calm Calm - N/A   Mostly Cloudy
3:52 PM 30.0 °F 25.2 °F 12.0 °F 47% 30.21 in 10.0 mi NW 4.6 mph - N/A   Mostly Cloudy
4:52 PM 28.9 °F 23.9 °F 14.0 °F 54% 30.21 in 10.0 mi North 4.6 mph - N/A   Overcast
5:52 PM 27.0 °F 21.6 °F 12.9 °F 56% 30.22 in 10.0 mi NNW 4.6 mph - N/A   Overcast
6:52 PM 27.0 °F 20.5 °F 12.0 °F 53% 30.24 in 10.0 mi NNW 5.8 mph - N/A   Overcast
7:52 PM 25.0 °F 19.3 °F 12.0 °F 58% 30.25 in 10.0 mi NNW 4.6 mph - N/A   Overcast
8:52 PM 24.1 °F 17.0 °F 12.9 °F 62% 30.26 in 10.0 mi NNW 5.8 mph - N/A   Overcast
9:52 PM 23.0 °F - 12.0 °F 63% 30.25 in 10.0 mi Calm Calm - N/A   Overcast
10:52 PM 21.9 °F - 12.0 °F 66% 30.24 in 10.0 mi Calm Calm - N/A   Overcast
11:52 PM 19.9 °F - 12.0 °F 71% 30.24 in 10.0 mi Calm Calm - N/A   Scattered Clouds